Theta_e
316 315 314 315 315 315 315 316 315 315 315 315 315 315 314 314 313 313 310 311 312 312 311 311 311 311 309 310 309 307 307 306 305 304 305 304 304 305 303 303 305 303 305 304 304 301 301 301 301 301 301 300 299 301 301 300 299 300 301 299 299 300 299 296 295 295 296 297 299 300 302 301 300 300 300 300 301 302 304 302 303 303 303 302 303
314 313 312 313 315 315 314 315 316 316 315 315 315 314 314 313 313 312 311 311 312 312 311 312 312 312 311 310 310 309 309 308 306 305 305 304 304 306 306 304 303 303 303 304 303 304 302 301 302 301 300 300 299 301 300 299 299 299 299 299 298 299 298 297 295 294 294 296 298 299 299 299 298 300 299 299 298 300 300 301 302 302 302 301 302
313 312 311 311 312 313 314 315 316 315 315 314 314 314 314 314 313 313 313 311 311 311 311 311 314 314 313 312 310 309 309 309 307 306 305 305 305 304 306 305 305 304 304 304 304 303 301 302 301 301 302 300 298 298 299 299 299 299 298 298 297 297 297 297 296 294 294 294 295 296 297 297 297 299 298 298 298 299 299 299 300 301 302 301 301
313 313 312 311 311 312 312 312 313 312 312 312 313 314 316 314 315 313 313 313 313 313 314 312 311 311 313 313 312 311 310 309 307 307 307 305 305 306 306 305 305 305 306 305 303 304 304 301 301 301 301 300 298 298 298 298 298 298 296 296 295 295 295 295 295 293 293 291 292 295 297 296 296 298 297 296 296 298 298 297 298 298 298 299 299
314 313 311 310 310 310 310 312 311 311 310 311 312 313 314 314 314 314 314 314 315 315 315 314 312 312 313 313 312 312 311 310 309 308 307 306 306 306 306 306 306 305 305 306 308 305 305 305 303 302 301 301 298 298 298 298 297 296 294 293 293 294 295 294 293 292 291 290 291 292 294 294 296 296 296 294 295 296 296 296 296 297 296 297 299
313 312 311 311 310 310 309 310 309 310 311 312 312 312 312 313 313 313 315 314 314 314 314 313 314 314 314 314 313 312 311 312 312 311 310 308 307 306 306 306 306 306 305 306 307 306 306 305 303 303 302 302 301 299 298 297 294 293 292 291 292 292 292 292 292 292 291 290 290 292 291 292 291 292 294 294 294 294 295 296 295 295 296 296 297
310 310 310 311 310 309 309 308 309 308 308 310 311 312 311 311 312 312 312 313 313 312 311 313 313 313 314 314 314 314 313 314 313 313 313 311 310 308 307 307 306 306 305 306 306 306 306 306 304 305 304 304 303 302 299 297 297 295 295 293 292 292 292 292 291 291 290 290 289 290 290 292 292 291 293 293 293 293 293 293 294 295 295 295 296
309 309 309 309 308 308 309 309 309 310 309 310 310 310 311 311 310 311 312 312 312 311 310 311 312 312 313 313 314 314 313 313 313 313 312 312 311 311 310 309 307 306 306 306 307 307 306 305 305 305 306 306 305 304 303 301 298 296 296 295 294 292 292 291 290 290 290 289 289 288 288 288 290 290 293 292 292 292 293 292 291 293 294 295 294
308 308 308 308 307 308 308 308 310 310 311 310 309 309 310 312 312 311 310 309 309 310 310 311 311 311 311 311 312 312 312 312 313 313 312 312 311 311 311 310 309 309 308 308 307 306 306 306 305 305 307 311 307 305 304 303 298 295 295 295 294 292 291 292 291 289 289 290 290 289 288 289 289 290 290 290 290 289 291 291 291 292 293 293 295
304 301 303 303 302 305 307 307 308 309 309 309 310 309 310 309 309 309 309 308 308 308 309 310 311 311 311 311 310 309 310 312 312 307 308 312 311 312 311 310 310 309 309 309 308 307 307 306 307 312 309 309 305 300 299 299 301 299 296 296 295 292 291 290 290 289 290 290 289 288 289 289 288 288 288 289 290 290 290 291 290 292 291 292 293
297 296 297 297 297 298 302 302 302 304 305 305 305 306 306 306 307 307 307 307 307 308 308 308 308 309 310 309 308 308 309 311 306 302 300 301 309 309 310 311 310 310 308 308 308 308 307 307 306 309 308 307 305 298 297 296 296 296 296 297 297 295 292 290 289 289 291 290 289 288 287 288 289 289 288 289 289 289 289 290 290 290 289 289 288
295 295 296 296 297 296 296 296 297 298 299 299 299 300 302 304 305 306 305 306 306 305 305 307 306 305 306 306 306 307 308 307 301 300 299 298 301 309 310 309 309 308 309 308 308 307 306 306 306 308 308 308 304 298 296 295 294 294 293 294 294 295 295 293 291 289 288 288 288 288 287 287 287 287 288 288 289 288 288 288 287 287 288 287 287
294 295 295 296 295 296 295 296 297 297 298 298 298 298 299 299 298 299 298 301 303 304 302 302 303 303 304 304 304 305 306 303 297 296 297 296 296 300 306 308 306 306 306 307 307 306 305 305 305 306 307 308 303 298 297 296 294 293 293 293 292 292 292 293 294 293 290 289 288 287 288 287 287 288 291 290 289 287 287 287 287 286 287 287 287
294 294 295 295 295 295 295 295 296 296 296 297 296 296 297 298 298 298 298 298 298 298 298 299 298 299 300 301 302 302 304 303 297 297 296 295 295 296 305 305 306 306 306 306 305 304 304 303 303 303 303 303 300 299 299 298 297 297 297 296 296 295 292 291 290 291 292 291 289 288 288 289 290 288 291 290 288 287 286 286 286 286 286 287 288
294 294 294 295 294 294 295 294 295 295 295 295 295 295 295 295 296 296 295 297 297 299 297 297 296 296 294 295 297 301 301 294 291 292 294 294 294 294 303 303 304 303 304 302 301 301 300 301 300 300 300 300 301 301 300 299 299 298 296 295 294 293 292 292 290 289 290 289 288 289 288 289 288 288 288 288 288 288 288 287 287 288 288 288 287
294 294 295 294 295 295 295 295 294 294 295 294 295 295 294 294 295 294 294 292 293 293 293 293 292 292 292 292 295 295 294 292 291 292 294 295 293 298 299 300 300 299 295 296 298 297 298 299 299 299 299 300 298 295 297 299 298 296 294 293 293 292 292 292 292 293 292 288 287 288 288 288 292 289 289 288 287 287 288 288 286 286 285 283 283
294 295 295 295 296 295 296 296 296 295 294 295 295 295 295 296 294 294 295 293 292 293 291 291 291 290 290 290 290 290 290 292 291 292 292 294 294 296 296 295 294 293 294 295 295 296 296 296 297 298 297 295 292 291 293 295 295 294 293 292 291 290 289 289 291 291 291 291 291 291 290 290 290 290 290 290 289 288 286 283 283 282 282 282 283
295 295 296 297 297 296 295 295 296 295 294 295 295 294 293 293 293 293 295 295 294 292 290 289 288 289 288 289 291 289 287 291 292 292 292 294 297 295 295 295 294 294 292 292 292 294 299 304 300 294 293 292 290 291 291 294 293 292 291 290 289 288 287 286 287 289 290 290 290 289 289 289 290 290 290 291 290 291 285 283 284 283 283 283 282
299 297 297 297 298 296 295 294 293 293 294 295 294 296 295 296 294 292 291 291 291 290 291 288 287 287 287 288 296 287 286 290 292 292 293 294 295 294 295 295 292 290 290 289 289 290 291 295 297 294 293 291 289 290 290 292 291 291 290 289 288 286 285 284 284 284 284 285 284 286 286 288 288 286 289 290 290 291 288 286 285 283 283 283 283
298 296 296 297 298 297 296 296 294 293 294 293 292 294 294 293 292 291 289 289 290 289 289 287 286 286 285 285 287 286 287 287 289 291 293 293 295 296 294 293 290 288 289 290 290 289 290 291 292 289 289 289 289 289 289 290 291 290 289 287 286 283 283 284 287 285 284 284 283 283 284 284 284 284 284 285 287 288 288 287 286 285 284 283 284
296 296 296 296 296 296 296 296 295 294 294 294 293 293 292 293 291 291 289 289 288 287 287 286 286 285 284 284 285 287 289 287 288 290 291 292 292 292 290 290 289 289 290 291 291 290 290 290 290 290 289 289 289 289 289 290 290 289 287 285 284 286 286 284 285 290 284 284 284 284 284 284 283 284 283 284 286 287 287 287 287 286 285 284 283
292 292 291 292 293 294 294 293 294 295 293 293 292 292 291 291 291 289 289 288 287 286 286 285 284 284 284 284 286 285 290 292 287 290 290 291 291 291 290 289 291 292 291 291 290 290 290 290 290 289 288 288 288 288 289 289 289 291 288 288 288 287 286 287 285 284 283 283 282 282 283 282 281 283 284 285 286 288 287 286 286 286 286 286 285
291 291 292 292 293 292 292 292 293 295 295 293 293 293 291 290 290 289 288 287 287 286 285 284 284 284 284 284 283 284 285 289 291 288 290 290 290 290 290 290 291 294 292 290 289 289 290 291 292 290 288 288 288 288 288 288 289 288 288 287 287 287 287 285 284 283 282 282 282 282 281 281 282 282 283 284 285 285 286 286 286 286 287 288 288
291 292 292 292 291 292 293 293 293 293 294 293 292 291 290 289 290 292 288 289 287 286 284 284 284 284 285 285 285 284 284 284 289 289 289 289 290 290 290 290 291 293 292 290 290 290 290 291 291 288 288 288 288 288 288 288 286 287 288 287 287 288 286 284 283 282 283 282 281 281 282 282 282 282 284 285 286 286 286 286 286 286 286 287 287
292 292 291 291 291 291 291 291 291 290 291 291 291 290 290 290 292 288 289 288 288 288 286 286 286 286 283 285 284 284 284 284 284 287 289 289 289 289 289 289 289 290 290 290 290 291 289 288 288 288 288 288 288 288 288 288 287 287 287 287 290 284 283 282 283 283 281 281 282 282 282 283 284 285 285 285 286 286 286 287 286 287 287 287 287
292 291 290 290 291 290 291 291 289 289 289 289 290 289 291 290 292 287 288 287 288 289 287 286 286 285 285 284 284 284 284 284 284 285 289 289 289 289 289 289 290 289 289 288 288 288 288 288 288 288 288 288 286 285 284 285 287 287 287 287 283 282 282 282 282 282 281 282 282 282 282 282 283 284 284 284 284 284 285 285 285 285 285 285 285
293 292 292 291 289 289 289 290 289 288 287 289 289 289 289 289 289 289 288 289 287 287 288 287 286 285 284 284 283 284 283 284 284 284 284 285 286 288 288 288 289 289 288 288 288 287 288 287 286 287 287 287 286 286 286 286 284 283 281 281 282 281 283 282 281 282 282 281 282 282 282 283 283 283 283 283 284 284 285 285 284 284 284 284 284
293 292 292 290 289 287 288 288 289 288 287 286 288 288 286 286 289 290 289 288 288 286 287 286 287 286 284 283 284 284 284 284 285 285 285 287 287 287 286 286 285 284 285 285 286 287 286 286 285 283 283 283 282 281 281 281 282 283 281 280 281 282 284 286 286 281 281 281 281 281 281 282 282 283 284 284 284 285 285 285 284 284 285 284 283
289 289 288 287 287 287 286 287 286 286 285 283 281 283 286 287 289 290 287 289 293 292 289 289 289 289 288 286 285 285 284 285 286 287 287 288 288 287 285 284 284 283 286 287 285 284 283 282 281 281 280 277 277 277 278 278 278 280 280 281 282 282 281 280 281 281 282 281 281 282 283 284 284 284 284 284 284 284 285 284 285 284 285 284 283
287 286 285 285 285 286 286 286 286 286 285 285 284 284 284 287 284 286 288 290 290 291 291 291 291 290 288 287 288 288 287 286 288 288 288 288 288 288 287 287 287 286 287 286 286 281 278 277 275 276 276 276 275 276 276 275 276 278 277 281 279 280 281 280 280 280 281 281 283 283 284 284 283 284 284 284 284 284 285 285 284 285 284 283 283
287 285 285 285 286 286 285 285 284 284 284 285 284 286 285 283 287 287 287 288 288 289 290 290 291 290 290 288 287 289 288 288 288 289 288 288 287 287 287 287 286 286 286 285 281 278 277 277 275 274 275 275 275 276 275 276 277 277 278 278 278 278 279 280 282 282 283 283 284 284 284 284 283 284 283 284 284 284 284 285 285 284 284 284 283
287 286 287 286 285 284 284 284 284 284 284 284 285 284 285 286 284 286 287 287 288 289 289 290 290 289 289 289 287 286 288 288 288 288 288 287 287 287 286 286 286 286 285 284 278 275 274 276 275 275 274 275 276 276 276 276 276 277 278 279 280 280 280 282 284 284 284 284 284 284 284 284 284 284 284 284 284 284 284 284 284 284 284 284 284
286 285 285 283 284 284 283 283 284 283 284 284 284 284 284 283 285 283 284 287 287 288 289 289 289 289 288 288 289 288 287 288 288 288 288 287 287 287 286 286 286 286 286 281 278 275 274 274 275 277 277 277 275 276 276 278 278 278 279 279 280 281 283 285 285 284 284 284 284 284 284 284 284 284 284 284 284 283 284 284 284 284 284 283 284
284 284 284 283 283 283 282 283 283 284 287 288 288 287 285 285 284 283 283 283 285 287 287 288 288 288 288 288 288 288 288 288 287 287 287 287 286 286 286 285 285 286 284 278 277 275 275 275 278 279 279 277 277 277 277 279 279 279 279 280 282 284 284 285 284 284 284 284 284 284 284 284 284 284 284 284 284 284 283 284 284 283 283 283 283
282 284 284 284 283 284 282 282 282 283 284 287 289 289 289 287 286 286 286 286 286 285 285 285 286 287 287 287 287 287 287 287 287 287 287 286 286 286 286 284 281 280 279 280 280 279 277 277 278 279 279 277 277 278 278 280 280 280 280 282 283 283 283 283 283 284 284 284 284 284 284 284 284 284 284 283 283 283 283 283 284 284 283 283 283
282 282 283 283 282 282 282 282 283 283 283 285 289 289 288 287 287 287 286 287 286 285 285 285 285 286 287 287 287 287 287 287 287 287 286 286 286 287 284 280 280 278 277 278 279 278 278 278 279 280 279 279 278 279 279 281 281 282 282 282 281 282 282 283 283 284 284 284 284 284 284 284 284 284 284 284 283 283 283 283 284 284 284 284 284
282 282 283 283 283 283 282 282 282 283 284 285 287 288 287 287 287 287 286 286 285 285 285 285 285 285 286 286 287 287 287 287 286 286 285 285 285 284 284 283 281 281 280 279 278 278 278 280 279 279 279 279 279 280 281 281 282 282 282 282 281 282 282 283 284 284 284 284 284 284 284 284 284 284 284 283 283 283 284 284 284 284 284 284 284
281 283 284 284 284 285 285 286 285 285 286 287 288 287 287 287 287 286 286 285 285 285 285 285 285 284 284 284 288 286 285 286 286 285 284 284 283 282 281 281 281 280 278 278 277 278 278 279 279 280 279 280 280 281 281 281 281 282 282 282 282 282 284 284 284 284 284 284 284 284 284 284 284 284 284 283 283 283 283 284 283 283 284 284 284
283 284 285 286 287 288 289 287 287 287 286 286 286 286 286 286 286 286 286 285 285 285 285 285 285 284 284 284 285 286 286 284 283 282 281 280 280 280 281 280 279 279 277 278 278 278 277 278 278 278 279 278 280 280 280 280 281 281 282 282 282 283 283 283 284 284 284 284 284 284 284 284 284 284 284 284 283 283 283 284 284 283 283 283 283
284 285 285 286 287 288 287 286 287 287 286 286 286 286 285 285 285 285 285 285 285 285 285 285 284 284 284 285 284 284 283 282 282 281 281 280 280 279 280 279 278 279 276 276 276 276 276 277 276 277 278 278 279 280 280 280 280 281 281 281 282 282 283 283 283 284 284 284 284 284 284 284 284 284 284 284 284 284 284 284 284 284 284 284 284
286 287 287 288 288 290 289 287 287 287 287 286 286 286 285 285 285 285 285 285 285 284 284 284 284 284 284 284 285 284 283 283 282 281 280 280 279 279 278 277 277 277 276 275 275 276 277 276 273 274 275 276 278 278 280 279 280 281 281 281 281 282 283 283 283 284 284 284 284 284 284 284 284 284 284 284 285 285 284 285 284 284 284 284 284
289 288 288 288 288 289 288 287 286 286 286 286 287 286 285 285 285 285 285 284 285 284 284 284 284 283 284 285 285 286 284 283 282 281 280 280 280 279 277 277 278 277 274 273 274 275 275 275 275 274 275 277 278 279 279 279 280 280 280 280 280 280 281 282 283 283 283 283 283 284 284 284 284 285 285 285 285 285 285 285 285 285 284 284 284
290 290 289 289 289 288 287 287 286 287 286 286 286 286 286 286 286 285 285 285 284 284 284 284 283 283 284 284 284 284 284 283 282 281 280 279 279 278 277 275 275 275 275 275 276 276 275 275 274 275 276 277 276 277 277 278 279 279 279 279 279 280 281 282 282 282 283 283 283 283 283 284 285 285 285 285 285 285 285 285 285 285 285 285 284
290 290 289 289 288 288 287 287 286 286 286 285 286 286 286 286 286 285 285 284 284 284 284 284 283 283 282 283 283 283 282 282 281 280 280 279 279 276 274 274 275 274 274 273 274 274 272 274 275 277 276 276 276 276 276 277 277 276 277 277 278 280 280 281 281 281 281 281 282 283 283 284 285 285 285 285 285 284 284 285 285 285 285 285 285
290 290 289 290 290 289 288 286 286 286 286 286 286 286 285 286 285 284 284 284 284 284 284 283 283 283 283 282 282 282 281 281 280 280 279 278 277 275 274 273 273 273 274 275 274 274 274 275 275 275 276 277 277 277 276 276 276 275 275 277 278 279 279 280 281 281 282 281 282 282 283 284 284 285 285 285 285 285 284 285 285 285 285 285 285
289 289 288 288 288 288 287 287 286 286 286 285 285 285 284 285 284 284 284 284 284 283 283 283 282 282 281 281 281 281 281 280 280 279 278 276 275 274 274 274 274 274 273 273 274 274 276 275 275 275 275 275 276 276 277 276 276 277 277 278 279 279 280 280 280 280 280 281 282 282 283 284 284 285 285 285 285 285 285 285 285 285 285 285 285
289 287 287 287 287 286 286 286 285 285 285 284 284 283 283 283 283 283 283 283 283 283 282 282 281 281 281 281 281 280 280 280 279 278 277 277 275 275 275 275 276 276 275 275 274 275 276 276 275 274 275 274 275 277 277 277 278 278 279 278 279 279 279 279 279 279 280 281 282 282 283 284 284 284 285 285 285 285 285 285 285 285 285 285 285
288 287 287 287 287 286 285 285 284 284 284 283 283 283 283 283 283 282 282 282 282 281 281 281 281 281 281 280 280 280 280 279 279 279 277 277 276 275 275 275 275 273 274 275 274 275 275 275 275 275 276 277 278 279 278 278 278 278 278 278 279 279 279 279 278 279 280 281 281 282 283 284 284 284 285 285 284 285 284 285 285 285 285 285 285
287 287 286 285 285 284 283 283 283 283 282 282 282 282 282 282 281 281 281 281 280 280 280 280 280 280 280 280 280 280 280 278 278 277 276 277 278 278 278 277 277 274 274 274 274 274 275 275 276 277 278 278 279 278 278 278 278 278 278 278 278 278 278 278 278 278 279 280 281 282 283 284 284 284 284 284 285 285 285 285 285 285 285 285 285
286 285 285 284 283 283 283 283 283 282 282 282 282 282 282 282 281 281 280 280 280 280 279 280 279 280 280 280 280 280 280 279 278 277 278 278 279 280 281 280 277 275 273 273 273 275 275 275 277 278 279 279 279 279 279 278 278 278 278 278 278 278 278 278 278 278 278 279 280 282 283 283 283 283 284 284 284 284 284 285 285 285 285 285 285
285 285 284 283 283 283 283 283 283 282 282 282 282 282 281 281 281 280 280 280 279 279 279 279 279 279 279 279 279 279 279 280 281 281 281 281 281 281 281 279 277 274 273 274 275 277 277 278 279 279 279 279 279 280 279 279 278 278 278 278 278 278 278 278 278 278 278 278 280 282 283 283 283 283 283 284 284 284 284 284 284 285 285 285 285
Wind_Speed
6 2 3 3 3 4 4 4 5 5 5 6 6 6 4 4 6 7 4 5 5 5 4 4 4 5 5 5 4 4 3 3 2 2 3 2 2 3 4 4 5 4 4 3 2 3 4 4 2 1 1 4 3 4 5 4 5 6 5 6 6 5 4 3 3 2 2 0 1 3 3 4 5 5 7 7 8 8 8 7 8 8 8 8 8
5 3 2 2 5 5 4 4 4 4 4 3 1 2 4 3 4 3 5 6 5 6 5 4 3 3 4 4 4 4 4 3 2 3 3 3 2 1 4 4 4 4 4 4 4 4 4 4 3 2 2 4 4 4 3 5 5 6 6 6 6 5 3 4 2 3 3 3 5 3 4 4 4 6 7 7 7 5 7 7 6 6 7 7 8
2 4 4 4 4 5 5 5 6 5 5 4 2 2 1 2 3 5 2 1 2 2 3 4 6 6 4 4 4 4 4 4 3 3 3 4 4 4 3 4 4 4 4 4 4 3 4 4 4 3 3 4 4 3 3 5 4 6 4 4 6 4 4 3 4 4 4 3 2 5 5 5 5 6 7 5 4 4 5 6 5 5 5 6 6
4 4 5 5 5 7 6 5 5 5 7 5 4 2 4 4 4 1 2 3 3 1 3 6 4 4 5 6 5 5 4 4 3 3 4 4 4 4 4 4 4 4 4 4 4 4 4 4 3 3 3 4 4 4 4 4 5 5 5 4 5 4 3 4 4 3 1 4 3 3 4 6 3 3 6 4 6 5 5 4 3 4 4 6 5
5 5 5 6 6 7 6 6 6 5 4 5 5 2 5 4 4 0 2 3 2 3 4 1 2 4 5 6 6 6 6 3 2 3 4 4 4 4 4 4 4 4 4 4 5 5 4 5 4 4 4 4 3 4 3 4 3 5 5 3 5 4 3 4 4 3 3 4 3 1 3 3 2 3 6 8 7 4 4 6 5 4 5 3 3
5 6 5 6 5 6 5 5 6 4 3 1 1 2 3 2 1 2 1 4 0 3 1 1 2 2 3 7 8 6 2 2 4 6 6 4 4 4 4 4 4 4 4 4 4 5 5 5 4 5 5 5 5 4 4 5 3 4 4 3 4 4 5 3 3 4 4 2 1 3 3 5 4 2 4 5 6 8 9 7 3 4 7 9 6
4 5 5 5 5 4 4 4 5 4 3 1 1 2 3 3 4 3 4 6 5 4 4 4 5 4 4 2 7 8 5 7 7 7 7 5 5 5 5 4 4 4 4 4 4 4 5 5 5 6 6 6 5 6 5 4 4 4 5 5 4 5 5 4 4 5 4 4 2 1 2 1 2 4 3 3 3 3 7 9 11 5 5 6 10
3 3 3 2 3 3 2 3 4 4 5 4 3 2 1 1 1 2 0 4 6 4 4 5 3 2 1 4 9 9 9 6 4 4 5 5 5 5 5 5 4 4 4 4 5 5 6 5 6 7 8 7 7 6 7 7 6 6 5 5 4 5 5 4 5 4 4 4 3 2 2 2 4 1 2 4 4 1 4 3 7 10 10 7 3
3 2 1 3 3 3 2 3 3 0 2 1 0 2 5 5 5 5 6 5 3 1 2 3 2 3 3 5 7 7 6 5 5 5 5 5 5 5 4 4 4 4 4 5 5 5 5 5 6 7 7 9 12 11 10 8 7 6 3 3 3 5 5 5 5 4 3 3 2 1 3 4 3 5 7 5 5 4 5 3 3 4 6 9 7
3 3 1 1 1 0 1 3 2 2 1 2 3 2 5 6 8 8 7 4 3 3 4 2 2 3 4 6 6 5 5 5 6 10 8 5 4 4 3 4 4 5 6 6 6 5 6 6 6 11 13 13 12 12 11 8 4 5 7 5 5 3 3 4 5 4 3 1 0 1 4 5 3 2 2 2 3 3 4 4 6 6 5 5 6
4 4 3 2 1 1 1 1 4 6 7 8 8 8 7 6 5 4 3 3 3 3 2 1 3 4 5 5 5 5 5 5 9 10 11 10 5 3 4 5 4 5 5 5 6 7 6 6 5 8 10 10 10 12 10 10 10 11 10 9 8 6 4 3 3 4 4 3 2 1 2 4 4 1 1 3 2 3 3 4 5 5 6 7 10
5 4 2 3 3 4 3 2 2 1 2 2 2 3 4 4 3 3 3 3 3 3 4 6 5 5 5 4 5 5 5 7 10 10 10 11 8 6 4 5 5 5 5 6 6 6 6 6 5 5 6 8 5 6 7 10 11 10 9 9 8 7 6 4 3 2 3 4 3 3 2 3 3 2 1 2 4 3 3 3 2 3 5 6 5
4 3 2 3 3 3 4 4 3 3 3 3 4 4 4 4 4 3 3 1 2 2 1 1 2 2 3 4 4 4 4 7 8 9 9 9 8 6 5 5 4 6 5 6 6 6 5 5 5 4 3 7 7 6 6 5 5 6 6 6 5 5 4 4 3 2 5 3 3 2 4 2 1 1 0 1 0 3 3 4 3 3 4 6 7
4 3 3 4 3 2 2 3 4 3 2 2 3 4 4 4 2 1 1 2 2 1 1 1 0 1 2 3 3 3 5 2 2 6 8 9 9 5 5 5 5 5 5 5 4 4 4 4 4 3 3 4 5 6 5 5 5 4 2 3 4 7 8 8 7 7 3 2 3 2 1 1 1 1 0 1 0 3 3 5 3 6 6 8 7
5 4 4 4 4 4 4 4 4 2 2 1 0 3 4 3 1 1 1 1 1 1 1 1 2 2 2 2 2 4 3 7 5 3 6 8 9 5 4 3 4 4 4 3 3 2 3 3 3 4 4 4 5 7 7 6 5 4 4 5 5 5 5 4 3 2 1 1 1 0 0 1 2 2 2 2 3 3 3 5 5 6 7 6 6
5 5 5 4 4 3 5 5 4 4 3 3 3 3 2 1 1 2 2 2 2 2 3 3 3 3 3 3 1 3 3 7 9 8 4 6 7 3 2 2 2 1 2 2 1 1 2 4 4 4 4 4 4 7 6 5 5 5 5 4 5 5 5 3 5 5 4 3 2 2 1 2 3 2 3 3 3 3 3 2 3 4 5 5 6
4 3 3 3 3 3 4 5 4 4 4 5 5 5 5 5 4 1 2 4 4 3 3 3 1 2 3 3 3 4 4 5 7 5 5 1 4 2 2 2 2 3 4 4 4 3 3 3 5 6 6 5 5 9 9 9 6 6 5 5 3 3 2 0 2 4 4 4 3 3 3 4 4 4 5 6 3 3 1 3 5 3 5 7 6
2 2 1 1 1 2 3 4 4 3 4 4 3 3 2 1 2 3 4 4 2 1 3 3 3 3 3 3 2 1 3 6 9 5 4 2 3 3 4 5 4 5 5 5 5 5 5 9 7 6 7 5 8 11 10 8 7 6 5 4 2 1 2 1 1 0 1 2 2 2 4 3 3 4 5 5 6 3 1 5 5 3 6 4 7
2 4 2 3 3 3 3 2 3 3 3 1 1 2 2 1 1 2 3 3 3 2 1 3 3 3 3 2 4 3 2 4 7 5 5 6 4 4 5 6 6 4 5 5 5 6 6 7 9 9 8 8 12 11 11 8 6 5 4 3 1 1 3 1 1 2 3 4 4 4 4 6 4 4 5 9 9 8 3 5 4 4 6 6 6
6 7 4 3 4 4 3 4 4 4 3 2 1 1 0 1 2 2 3 2 3 2 2 3 3 3 3 3 3 1 2 3 4 5 6 6 6 5 4 7 6 5 4 5 6 5 6 6 8 11 12 12 11 11 9 9 6 4 3 2 0 2 1 0 0 0 2 2 4 3 4 4 5 4 5 5 6 4 5 5 4 5 6 6 6
4 5 5 4 4 4 4 5 5 3 1 1 2 1 1 1 2 2 2 2 3 3 2 2 3 3 3 3 2 2 0 2 3 6 7 7 8 7 4 5 5 6 5 5 5 5 5 5 4 7 9 9 9 9 8 7 5 3 2 1 1 0 2 0 2 1 1 2 2 3 5 5 5 4 5 5 6 6 5 5 5 5 6 6 7
3 2 3 4 5 4 4 4 4 5 4 4 3 1 1 1 3 4 4 3 3 2 2 2 3 3 3 3 2 2 2 1 3 5 8 8 8 9 7 4 6 8 6 5 5 5 5 4 4 5 7 7 6 5 6 6 4 2 1 1 1 1 1 1 1 1 1 1 2 3 4 5 5 5 5 5 6 6 6 6 6 6 6 7 7
4 3 1 1 1 2 3 4 4 3 4 4 4 4 3 4 4 4 4 3 3 2 1 1 1 1 2 2 2 2 2 1 3 4 7 10 10 9 9 6 4 4 7 6 5 5 3 3 3 4 4 4 4 4 3 2 2 1 2 2 2 2 1 1 0 1 2 2 2 4 4 5 5 6 6 6 6 6 6 6 7 7 6 6 7
3 4 4 4 4 4 3 3 3 3 5 5 4 4 4 4 4 6 5 5 5 4 2 1 1 1 1 0 1 2 2 2 4 5 5 9 9 10 10 9 8 6 6 6 5 5 4 3 3 3 3 3 4 3 3 3 2 4 4 4 4 2 0 0 1 1 2 3 4 5 6 5 5 6 6 6 6 6 7 6 7 7 7 7 7
5 4 4 4 4 3 2 1 1 1 1 3 3 3 2 2 2 2 5 5 5 5 5 4 5 5 3 3 3 1 1 2 2 4 8 10 11 11 12 13 11 11 8 4 4 4 5 6 6 5 4 6 7 6 6 6 7 5 6 5 4 1 2 2 3 3 5 5 6 6 6 6 6 7 6 6 6 5 5 6 5 6 6 7 7
3 4 4 4 4 3 3 1 1 1 1 1 3 4 4 4 4 3 5 5 5 6 5 5 6 5 6 5 4 2 0 1 2 3 4 6 7 10 11 12 11 11 9 7 7 8 8 8 9 8 8 6 4 4 4 4 7 9 8 7 4 4 3 4 4 4 5 6 5 6 6 6 6 6 5 5 6 7 6 7 7 7 6 7 8
3 3 4 3 2 2 4 3 2 1 1 1 1 2 3 4 4 4 4 6 6 5 6 6 6 5 5 4 3 2 2 2 2 3 3 5 4 4 7 8 10 10 7 5 6 6 7 6 7 8 8 9 8 6 6 6 5 5 4 4 4 3 4 3 3 5 5 6 5 6 6 6 6 5 6 6 7 7 6 7 7 7 7 7 7
5 5 4 3 3 3 3 3 3 3 1 2 3 3 2 3 5 6 6 6 6 6 6 6 7 7 6 6 5 4 4 3 4 6 5 6 5 3 4 4 4 5 6 5 5 6 6 6 7 5 6 6 6 5 5 4 3 4 4 3 3 3 3 5 4 3 4 5 6 5 5 5 6 7 7 7 7 8 7 8 7 8 7 7 8
4 4 3 3 3 1 2 2 3 2 2 1 2 3 4 4 6 6 5 4 8 9 8 7 8 8 8 8 8 7 5 7 6 3 5 8 8 7 5 5 5 5 6 8 6 5 6 7 6 6 5 4 4 4 5 5 5 4 3 4 4 5 5 5 6 6 6 6 6 6 7 6 7 7 7 7 7 7 7 8 8 8 8 7 9
4 4 4 4 4 3 3 2 2 2 2 4 3 3 2 3 3 4 6 4 7 8 6 8 9 8 8 8 9 11 12 9 9 9 6 7 8 9 8 7 7 7 7 8 7 7 6 6 4 4 3 4 3 3 2 3 3 5 4 4 4 5 5 5 5 5 6 6 6 7 7 7 7 7 7 7 7 7 7 8 8 8 8 8 9
4 4 4 5 5 4 3 3 2 2 3 3 3 4 4 2 1 2 6 8 8 9 9 9 6 10 10 9 4 5 8 12 13 12 10 11 12 12 11 10 10 10 9 8 6 5 5 6 3 2 1 1 2 2 2 3 4 4 5 5 4 4 4 5 5 5 6 7 7 7 7 7 8 7 8 8 8 8 8 7 7 8 8 8 9
7 7 6 5 4 3 3 3 3 3 4 3 5 5 6 6 4 4 6 3 5 9 11 10 9 10 7 7 7 6 10 12 14 14 14 14 13 12 11 10 8 8 7 11 7 4 4 6 3 2 1 3 1 2 2 3 4 5 5 6 6 5 5 5 5 6 6 7 7 7 7 7 8 8 8 8 9 8 8 8 7 7 8 8 9
4 4 4 3 3 3 3 3 3 3 4 4 4 5 6 6 7 4 4 8 9 4 5 9 12 14 13 12 11 11 11 12 15 15 14 14 13 12 11 10 7 7 9 7 7 4 3 4 3 1 1 1 1 2 3 4 4 5 5 5 6 6 6 6 6 6 6 6 7 7 8 8 8 9 9 9 9 9 8 8 8 8 8 9 9
4 3 3 3 3 3 3 4 3 4 4 5 5 5 6 6 6 5 4 3 6 9 10 8 9 11 11 13 13 15 16 16 15 15 15 13 13 11 10 7 10 8 7 7 6 5 3 3 1 0 1 1 2 2 3 4 5 5 5 4 5 6 7 7 6 6 6 6 7 7 8 8 8 8 8 8 8 8 9 8 8 8 8 8 8
1 1 2 3 4 3 3 3 3 4 4 5 5 5 5 5 5 5 6 6 5 5 4 5 7 8 9 11 14 14 15 15 15 14 14 13 12 12 11 8 6 5 5 4 5 5 4 2 1 0 1 1 2 2 4 4 5 4 5 7 7 6 7 6 6 6 7 7 8 8 8 9 9 8 8 8 8 8 8 8 8 8 8 8 8
1 1 0 1 1 1 1 0 0 1 2 3 3 4 4 5 5 4 2 4 7 8 6 5 5 8 12 11 14 14 14 14 13 12 12 12 13 10 7 5 6 5 4 3 4 3 3 2 1 0 1 2 2 4 3 4 5 5 6 6 7 6 6 7 7 7 8 8 8 9 9 8 8 8 8 8 9 9 8 8 8 8 9 9 8
2 1 1 1 1 2 2 2 2 2 2 1 2 4 4 5 5 5 5 6 7 6 8 8 8 8 8 6 9 12 12 13 12 11 10 9 6 4 6 6 6 5 6 4 3 3 2 1 1 0 1 2 3 3 4 5 6 6 6 6 6 6 6 7 8 8 8 8 8 8 9 8 8 8 8 8 8 8 8 8 9 9 9 10 10
3 3 2 2 3 3 3 4 4 5 4 3 2 4 5 5 6 6 7 6 7 8 8 7 6 8 9 5 2 5 8 11 12 10 8 7 5 5 5 6 6 6 5 3 3 3 2 0 0 1 2 3 3 5 5 6 6 6 6 6 6 6 10 10 9 8 8 8 8 8 8 8 8 8 8 8 8 8 9 8 8 8 8 9 8
3 3 5 6 4 3 3 4 4 5 4 4 3 4 5 6 7 7 6 6 7 7 6 6 6 6 7 6 5 5 8 5 5 5 5 5 5 5 6 5 5 5 3 4 2 2 1 1 1 1 2 3 4 5 5 6 6 6 6 6 7 7 7 7 7 8 8 8 8 8 8 8 8 8 8 8 8 8 9 9 9 8 8 8 8
3 2 3 5 3 3 2 1 3 4 3 4 4 4 5 6 7 6 6 6 6 6 6 5 5 5 4 4 5 5 6 6 5 5 5 5 5 4 5 6 5 5 4 3 2 1 1 1 1 2 3 4 5 5 5 5 6 6 6 6 6 7 8 7 7 7 8 8 8 8 8 8 8 8 8 7 8 8 8 9 9 8 8 8 8
3 2 3 3 3 2 3 3 3 3 3 4 4 4 5 6 6 5 5 5 5 5 5 5 5 4 3 4 6 7 7 6 5 4 5 6 5 5 4 4 5 3 2 2 1 0 0 2 3 3 4 4 4 5 5 5 6 6 6 7 6 7 7 7 7 7 8 8 8 9 9 9 8 8 8 8 8 8 8 8 8 8 8 8 8
4 3 3 2 2 1 3 3 3 4 4 4 4 4 4 5 5 5 5 5 4 5 5 4 4 3 3 6 7 9 8 6 6 6 5 5 5 4 3 3 2 3 4 3 1 1 1 2 3 3 4 5 5 5 5 5 5 6 6 7 7 7 7 7 7 8 8 8 9 9 9 9 9 9 9 9 8 8 8 8 8 7 7 7 7
3 3 3 2 1 1 1 1 2 3 3 4 4 4 4 5 5 5 5 5 5 5 5 5 4 4 5 5 9 10 7 6 5 6 5 4 4 3 3 2 1 1 1 0 0 0 1 1 3 3 3 5 5 5 5 5 5 6 6 6 7 7 8 8 8 8 8 8 8 9 10 10 9 8 8 8 8 8 8 8 8 7 7 7 6
4 3 3 3 2 4 3 3 4 4 3 4 4 4 4 4 5 6 6 5 5 4 4 4 5 6 6 6 7 7 6 6 6 5 5 4 5 4 3 1 1 1 2 1 1 1 2 4 4 5 4 4 4 3 3 4 5 5 5 6 6 8 8 8 9 9 9 8 9 10 9 9 9 9 8 8 8 8 8 8 8 7 7 6 6
4 4 3 3 4 4 4 3 4 4 5 5 4 4 4 5 5 5 6 5 5 5 5 5 5 6 6 5 6 7 6 6 6 6 5 4 4 3 2 1 1 2 3 4 3 3 4 5 3 3 4 5 5 4 5 5 4 4 5 5 6 7 7 8 9 9 8 9 10 10 10 9 9 9 8 8 8 8 7 7 7 7 7 6 5
4 4 4 4 4 4 4 4 4 4 4 4 5 5 5 5 6 6 6 6 6 6 5 5 5 5 6 6 6 6 6 6 5 5 5 4 3 2 1 1 2 3 3 3 3 4 5 4 3 4 4 4 5 5 5 4 4 4 4 3 5 6 7 8 9 9 9 9 9 10 10 9 8 8 9 9 8 7 7 7 7 6 6 6 5
5 4 4 4 5 5 5 4 5 5 6 6 6 6 6 6 6 6 6 7 6 6 6 5 5 5 5 6 6 6 5 5 5 5 4 3 3 3 3 3 4 4 4 4 4 4 5 4 3 3 3 3 4 5 6 5 5 5 5 5 4 6 6 8 9 8 8 9 8 8 9 9 9 8 9 9 8 8 8 7 7 7 7 5 5
5 5 4 5 5 6 5 6 6 6 7 7 6 6 6 6 6 6 6 6 6 6 6 6 6 5 6 6 5 5 5 5 4 4 3 4 3 3 3 4 4 3 4 5 4 5 4 3 4 4 4 5 5 6 6 6 6 7 6 5 6 8 11 12 9 8 7 9 8 8 8 7 7 8 8 8 8 7 7 7 7 6 6 6 5
5 5 6 6 6 5 5 6 6 6 6 6 7 7 6 7 6 6 6 6 6 6 5 6 5 5 6 5 5 5 5 5 4 3 3 3 3 3 3 3 4 4 6 4 4 4 4 4 4 5 5 4 5 6 6 6 8 7 7 7 10 18 19 19 12 9 11 9 7 7 6 7 7 8 8 8 8 7 7 7 6 6 6 5 5
6 6 6 6 6 6 5 6 6 6 6 6 7 7 6 7 6 6 6 6 6 6 5 5 5 5 5 5 5 5 5 5 4 3 3 3 2 3 3 4 4 5 4 4 4 4 5 4 5 5 5 5 5 5 7 6 7 8 8 9 16 18 18 20 18 16 12 8 8 7 6 6 7 7 7 7 7 8 7 7 7 6 5 5 5
6 7 7 6 6 5 6 6 6 6 5 6 6 6 6 6 6 5 5 6 6 5 5 5 5 5 5 4 4 4 4 4 3 3 2 3 4 4 4 4 4 3 3 4 4 5 4 4 4 4 5 5 5 4 6 7 7 8 12 17 16 17 19 17 13 15 18 13 7 7 6 7 7 8 7 7 7 7 8 8 7 6 5 5 5
Wind_Direction
189 171 138 144 135 155 169 176 193 195 184 185 173 181 180 218 208 211 186 205 198 195 193 189 186 194 199 203 200 220 231 227 204 164 166 186 206 164 157 162 155 171 152 144 125 128 129 132 127 80 94 87 78 62 55 52 64 65 68 75 62 40 67 92 67 351 310 264 346 348 334 5 18 20 22 12 8 2 13 20 17 23 21 13 6
180 128 56 107 145 152 152 173 190 196 167 99 95 210 183 215 248 215 204 215 192 202 200 196 192 224 230 229 229 213 211 224 200 160 173 175 209 207 172 181 169 171 164 174 176 166 152 147 163 147 117 111 90 68 79 76 81 74 58 78 68 52 29 91 88 60 341 320 6 341 8 10 30 18 25 11 1 3 21 15 19 27 23 11 8
92 78 78 80 96 107 118 144 165 162 129 134 173 170 180 215 231 234 246 347 339 327 286 225 200 210 217 241 236 239 225 216 195 186 196 183 189 208 203 192 188 176 186 194 192 169 155 170 187 165 143 102 93 110 102 93 90 92 90 88 91 73 50 71 86 44 22 327 329 2 10 357 28 10 10 3 354 8 25 19 9 19 22 14 8
118 101 95 103 108 102 98 103 97 90 90 90 96 104 87 60 28 18 103 128 133 161 255 288 272 221 220 233 232 230 234 234 216 201 205 193 198 208 209 206 205 201 198 197 188 174 185 182 210 176 153 127 126 111 107 108 105 110 99 93 100 95 79 72 74 108 80 15 317 18 354 10 352 12 4 360 10 7 18 357 7 29 17 13 7
131 125 126 123 111 105 109 108 97 100 124 145 158 134 90 98 108 325 140 153 190 204 239 15 338 325 298 263 239 228 225 229 275 262 231 206 198 204 214 218 214 212 208 206 197 188 187 196 191 174 162 146 145 130 138 112 120 110 112 126 108 110 86 83 83 82 84 34 320 309 5 12 346 357 12 2 352 2 5 10 354 5 3 11 1
139 140 149 135 132 128 140 128 114 128 147 199 30 64 69 29 41 167 37 19 127 165 138 142 155 198 258 292 304 284 277 168 220 248 255 230 212 203 205 216 226 221 218 214 206 199 194 199 186 177 173 169 183 168 146 139 139 117 110 106 112 101 92 80 85 76 74 67 25 348 357 15 352 343 12 9 356 350 350 350 359 12 6 355 0
144 149 165 157 140 156 161 164 144 152 134 160 229 126 122 164 222 227 127 163 222 191 175 181 195 208 227 245 262 270 238 229 223 225 233 228 219 214 213 214 207 207 218 218 219 215 208 196 185 184 188 189 173 174 161 147 137 144 152 147 155 116 97 86 76 68 65 40 7 51 328 312 33 335 343 3 337 40 2 346 343 360 20 4 336
139 149 159 122 123 158 171 138 140 147 163 176 204 120 85 32 339 332 71 192 212 194 181 202 199 152 164 212 235 238 244 236 239 236 235 227 224 229 224 220 216 218 219 218 215 214 214 206 196 194 195 192 182 179 171 172 162 155 177 154 143 102 103 103 78 79 65 54 42 331 343 318 340 312 305 347 360 24 48 9 332 334 338 343 331
118 116 121 131 147 148 124 88 86 353 351 37 83 120 145 196 223 226 212 217 210 187 212 232 209 205 215 229 240 242 241 243 234 230 229 233 221 233 232 236 239 243 245 237 227 222 220 216 210 206 208 201 193 183 186 176 166 165 176 123 116 119 128 112 119 106 95 78 9 350 347 340 326 344 347 12 16 319 318 6 308 307 316 323 323
83 63 44 322 303 288 110 104 115 102 108 232 232 190 173 197 203 208 213 202 187 176 177 187 196 223 232 245 249 252 254 255 250 243 235 228 225 230 235 237 236 237 238 241 240 225 220 214 216 214 210 207 201 196 187 165 138 150 158 146 137 122 132 134 134 137 125 97 253 334 338 315 312 317 310 288 293 318 340 355 337 321 319 297 294
94 95 57 359 19 103 118 150 162 168 178 176 177 171 180 174 171 184 192 193 204 202 170 167 199 218 219 226 242 250 251 253 260 263 256 247 235 219 220 239 239 240 238 235 240 237 231 222 221 221 219 216 203 192 163 155 142 143 159 159 158 148 146 141 175 153 146 167 178 156 225 286 294 249 263 284 345 356 326 329 322 331 344 344 327
100 85 66 33 44 70 81 81 61 43 77 59 77 132 139 141 149 172 184 209 221 161 177 194 192 198 207 218 229 239 245 248 249 254 258 262 253 247 233 225 228 229 231 231 236 235 231 226 222 216 210 210 167 143 149 147 141 142 152 157 159 160 145 152 151 148 161 164 182 206 177 229 258 323 315 17 328 335 317 324 298 325 320 314 290
92 75 42 62 57 69 75 82 80 76 68 73 88 86 83 79 70 72 66 118 106 125 191 143 192 207 198 212 237 245 253 261 262 266 267 262 260 248 257 244 231 230 223 227 232 232 222 213 215 210 185 134 138 147 135 122 106 125 142 134 130 124 94 80 95 151 169 147 169 218 195 195 224 252 90 330 359 329 331 335 320 298 274 278 279
64 59 51 51 57 55 104 88 73 55 33 53 78 80 84 92 82 29 70 90 94 112 75 85 295 199 208 222 249 266 259 326 330 289 279 270 261 234 240 238 236 234 229 230 232 226 214 202 188 174 143 147 137 132 129 126 128 109 86 46 55 52 50 43 24 22 27 162 160 197 248 131 185 208 273 144 12 301 302 290 289 294 288 275 280
50 49 59 44 42 40 69 71 87 74 71 44 355 118 119 125 90 45 73 80 89 68 360 20 16 12 357 324 301 301 301 11 11 350 281 259 257 235 245 246 252 258 269 269 258 220 196 179 156 146 135 131 137 138 139 145 137 127 90 78 73 74 72 64 78 121 114 90 127 166 189 173 188 215 230 211 217 229 236 253 265 268 274 288 284
55 54 66 54 55 54 75 74 66 56 45 57 55 25 13 72 133 169 111 66 51 66 48 56 33 7 349 1 357 288 315 356 352 341 322 255 227 220 248 266 263 314 351 9 55 109 141 139 132 126 125 115 104 127 121 120 107 99 92 77 68 67 65 53 82 95 110 135 155 168 190 199 208 218 240 245 250 251 272 298 310 280 292 300 295
39 60 68 39 40 49 75 78 70 62 64 55 31 16 6 350 349 9 82 105 110 112 109 94 74 46 25 20 12 337 335 342 350 349 340 155 144 138 119 92 72 66 45 41 44 54 75 112 118 115 100 84 90 97 106 105 95 94 90 79 67 70 70 355 81 107 117 138 184 198 248 265 275 270 266 268 258 263 279 349 302 294 327 308 295
356 345 67 83 69 84 71 77 74 66 63 58 35 2 338 320 343 21 26 22 52 107 140 105 61 55 62 36 15 360 325 337 349 12 81 128 120 120 108 100 80 74 63 38 35 39 50 86 99 98 97 91 88 88 91 95 94 98 98 99 66 19 307 332 3 181 200 227 186 214 225 247 281 305 301 301 305 300 242 287 269 322 292 278 290
17 300 227 180 161 169 156 135 131 122 105 117 126 63 44 14 326 36 62 86 92 47 29 70 71 41 32 39 32 43 344 342 360 26 90 112 113 114 113 109 99 74 80 64 37 46 44 50 74 92 95 100 91 89 86 90 101 105 120 107 106 291 260 273 327 345 347 354 338 353 339 342 342 333 318 318 312 307 272 248 263 257 270 274 279
216 213 219 190 174 167 173 154 151 142 147 165 196 173 167 33 29 68 52 81 107 66 63 62 62 34 10 24 22 6 37 6 8 49 82 101 117 119 124 121 118 110 93 96 80 51 52 62 65 87 97 96 96 95 96 101 109 125 113 116 193 275 250 119 246 219 294 318 301 318 307 309 319 322 319 311 303 288 281 267 248 236 253 266 268
233 208 199 195 182 183 180 158 159 180 164 140 128 94 83 43 49 83 99 76 79 63 52 57 72 39 14 3 5 360 26 64 36 68 86 94 105 110 98 110 123 113 106 90 96 99 80 70 63 73 86 89 90 92 95 102 107 114 109 145 189 154 107 37 296 306 283 290 301 312 305 309 306 301 288 286 278 276 273 268 253 234 235 253 263
232 229 221 201 187 174 167 184 180 162 167 138 110 83 70 117 128 115 105 107 94 75 59 51 64 40 11 4 6 349 354 67 95 82 101 102 110 118 116 132 143 125 107 102 103 96 103 103 89 78 83 88 91 87 81 75 60 85 150 172 65 95 222 227 230 259 257 271 282 291 293 294 291 288 283 275 271 270 263 261 261 253 235 227 239
195 191 218 255 248 219 204 178 171 154 141 143 131 136 137 105 111 114 110 100 102 101 79 56 59 46 20 2 350 350 358 12 86 99 104 109 108 106 112 119 102 96 121 118 108 106 93 101 104 89 72 66 65 69 78 88 82 22 14 337 299 299 266 228 231 280 309 303 301 292 284 284 286 282 280 278 271 267 265 261 260 257 256 248 239
181 174 180 196 218 230 225 206 168 156 152 152 146 150 155 142 134 144 140 135 135 141 151 118 110 146 157 293 348 351 353 17 45 76 89 90 93 100 102 99 98 96 99 112 117 124 120 89 73 64 42 30 26 20 21 31 12 349 341 330 318 325 168 276 306 311 312 311 302 292 286 275 274 278 272 267 270 269 269 266 262 258 258 261 257
160 169 186 201 206 194 168 166 170 142 176 144 137 152 160 150 165 164 136 140 151 166 192 178 190 198 189 198 218 277 356 10 39 72 95 95 97 98 95 95 97 99 95 99 99 97 97 96 81 66 60 69 70 64 51 41 33 30 21 2 1 28 4 350 334 341 324 300 289 285 283 275 267 268 273 277 279 285 283 277 270 268 268 267 264
186 196 192 186 186 170 164 139 61 75 107 173 173 177 185 177 199 203 161 167 170 175 184 188 203 198 208 200 188 195 44 45 57 49 52 82 91 96 97 94 89 88 97 100 101 93 88 83 86 85 79 82 77 65 60 45 47 38 29 29 22 10 360 351 330 326 301 293 287 285 280 283 282 278 283 292 298 290 290 290 295 291 290 287 289
224 225 205 189 171 162 169 181 169 113 104 128 151 190 180 183 187 210 204 183 181 187 178 183 192 197 205 197 194 184 170 142 113 82 78 81 74 83 89 90 95 94 92 97 90 87 84 85 88 89 88 77 73 67 55 32 31 15 10 5 1 346 330 316 293 286 287 284 284 280 283 282 289 303 297 297 293 290 283 288 289 286 287 282 283
205 211 208 189 183 176 180 187 188 200 222 185 198 223 239 193 188 202 198 194 183 192 184 185 192 193 188 176 174 171 188 182 175 162 157 138 126 114 100 99 100 111 106 97 101 100 96 84 69 50 53 45 37 30 23 26 30 6 346 343 333 323 312 304 297 276 267 265 272 279 286 296 300 295 293 291 291 292 292 286 286 287 286 291 285
209 194 182 160 182 179 175 178 184 193 214 291 259 219 222 217 218 244 241 200 186 179 188 199 199 198 178 170 170 181 178 201 211 198 165 155 147 142 129 123 120 103 123 127 106 80 73 65 62 52 48 59 38 21 4 3 346 339 335 330 332 331 329 336 327 311 306 309 301 297 298 300 297 294 288 284 281 287 291 290 282 281 281 271 273
173 186 181 184 195 190 205 213 217 209 211 228 257 285 246 236 215 223 269 266 253 258 193 191 198 183 181 197 182 173 192 187 162 161 163 144 121 113 116 121 122 120 118 110 102 88 77 84 72 88 68 61 45 11 345 336 328 332 322 320 327 331 328 323 308 300 300 296 294 298 298 296 291 288 284 280 280 273 271 272 279 274 274 272 275
195 200 200 214 211 205 206 231 239 229 232 230 231 243 270 289 284 228 234 255 251 246 239 243 212 185 176 175 181 116 129 152 149 143 137 124 119 117 115 113 114 122 125 98 52 88 100 95 87 71 80 80 48 346 333 336 328 326 323 319 307 305 311 313 311 309 307 303 297 289 287 286 287 286 284 282 280 279 276 266 261 263 264 268 270
196 211 212 221 212 210 209 216 224 226 248 234 229 229 231 235 262 352 17 348 265 230 221 206 179 166 160 143 132 117 142 140 138 135 130 126 120 117 111 106 105 101 95 98 88 77 106 115 95 68 61 40 334 324 326 328 321 326 321 331 325 322 312 305 299 297 297 297 297 297 295 291 287 285 282 282 280 280 278 276 268 267 266 263 264
204 224 222 221 220 226 217 218 219 208 225 226 236 224 220 221 223 252 350 38 49 48 190 171 161 162 154 150 151 149 142 136 131 130 128 123 119 111 101 89 89 105 85 70 112 113 104 106 110 98 83 4 310 315 317 319 322 323 328 318 308 303 305 305 304 297 290 289 292 289 287 284 282 281 279 278 279 279 278 275 273 267 267 268 268
206 199 203 204 201 221 217 217 219 223 217 214 215 208 212 209 211 188 140 77 50 46 49 76 113 121 123 127 131 132 131 133 130 127 125 122 119 112 100 83 68 65 107 131 115 129 122 105 106 119 310 296 318 332 327 327 332 322 303 286 295 312 309 306 297 290 288 290 289 285 284 282 280 281 280 278 275 274 274 272 271 271 267 264 270
114 184 211 200 196 216 219 214 218 230 223 221 216 208 208 205 189 185 177 157 139 120 123 69 65 92 123 125 125 124 124 126 128 128 125 126 121 117 107 92 80 55 51 74 108 125 129 140 134 91 297 333 322 330 333 318 311 308 319 324 314 301 295 294 294 298 303 301 296 291 288 286 284 279 278 280 281 278 276 276 273 269 271 273 272
124 134 236 186 166 173 166 195 225 218 234 228 216 200 179 166 163 172 172 132 128 124 91 73 89 87 94 101 114 118 120 120 121 122 127 131 137 127 100 104 104 107 106 98 108 117 123 146 142 292 296 326 330 335 311 311 313 323 313 296 290 293 300 307 311 314 309 301 293 291 289 286 282 282 280 276 275 275 277 276 276 274 271 272 270
133 115 88 101 112 92 66 56 39 38 46 82 127 133 135 136 133 129 127 125 116 107 110 117 109 88 69 67 97 103 103 102 97 98 109 119 110 93 119 129 128 122 116 119 115 113 106 143 200 276 338 339 317 310 324 326 319 304 290 285 283 298 305 309 311 309 306 299 294 290 288 287 287 286 284 284 281 278 277 276 275 273 270 268 269
147 145 139 122 93 77 68 52 40 39 39 53 87 114 121 125 127 126 123 120 119 117 115 111 109 119 123 129 105 114 100 90 86 77 80 83 81 94 101 115 121 127 138 142 150 146 151 205 243 360 324 322 325 329 332 314 302 294 293 298 305 299 308 309 305 303 299 294 292 292 293 291 291 290 288 283 283 284 281 278 277 276 272 266 264
138 115 104 94 92 90 75 58 53 57 50 51 66 96 109 114 112 106 106 108 106 105 107 116 127 130 133 142 126 132 105 88 91 105 85 80 84 103 114 110 114 119 131 152 165 143 143 56 330 337 334 340 341 333 313 298 296 297 305 311 310 307 309 309 310 310 306 300 301 298 296 292 290 289 286 283 280 279 279 278 274 272 271 272 265
132 98 107 114 94 69 43 65 91 95 82 69 58 76 90 94 96 101 101 102 107 114 127 130 130 124 134 130 133 117 104 115 120 127 120 110 110 103 114 124 128 140 148 155 158 164 118 329 346 355 339 348 339 313 302 299 302 306 311 309 308 308 307 307 306 308 306 306 304 304 303 301 298 295 291 286 285 284 282 279 278 273 272 271 272
101 85 89 97 84 51 15 3 23 75 104 98 94 76 83 87 92 96 99 104 113 116 115 113 103 105 113 121 116 112 120 128 127 120 123 125 121 117 116 128 136 132 143 145 169 211 96 22 344 343 351 336 313 305 303 308 313 320 317 313 311 308 307 305 304 304 305 305 305 305 303 302 300 299 296 295 290 288 285 283 281 279 275 271 269
102 105 106 94 72 24 17 14 5 50 79 93 95 104 103 104 106 105 107 107 103 102 95 80 69 64 74 114 125 120 111 110 112 111 103 103 109 112 123 133 140 150 156 172 174 108 54 13 339 357 345 323 314 309 311 318 324 321 320 317 314 310 307 306 308 308 309 308 308 306 304 301 298 294 292 294 294 292 291 288 286 283 281 277 272
103 116 123 116 90 28 44 32 42 60 68 81 79 84 97 101 99 99 94 86 83 85 86 81 64 67 82 103 110 104 102 107 110 110 110 108 108 113 116 127 143 184 180 199 204 128 90 10 345 338 317 304 297 293 309 318 322 320 318 317 314 311 309 309 312 313 312 310 305 302 304 303 302 303 302 300 297 298 294 295 294 291 286 280 277
97 93 89 84 86 68 46 54 57 59 66 85 92 87 81 78 74 76 82 81 80 82 95 103 110 105 103 95 94 95 101 104 104 108 112 106 105 108 106 82 60 41 29 33 10 70 65 28 2 332 319 302 298 303 318 315 315 315 317 316 315 315 313 315 315 315 313 309 304 306 306 306 306 306 306 306 307 304 306 306 305 303 299 294 286
96 94 99 95 74 70 58 48 67 79 84 77 69 73 82 87 87 84 89 96 97 93 95 100 102 106 104 96 96 100 99 98 100 99 95 102 103 93 81 61 61 65 52 28 5 21 30 21 359 335 321 317 321 329 326 321 321 312 308 311 311 314 314 314 314 310 305 302 304 307 307 308 308 309 309 311 309 307 306 309 308 306 305 302 302
88 85 79 73 74 68 69 57 52 60 66 75 85 82 77 80 86 90 93 90 91 94 90 85 85 88 94 98 94 95 98 99 96 95 97 90 90 79 67 70 65 59 47 21 9 22 18 13 343 319 314 312 324 333 330 327 323 318 307 303 307 303 307 308 308 307 302 302 302 305 305 305 308 309 311 312 310 310 309 310 311 311 309 308 306
89 85 87 84 83 73 65 64 65 63 65 68 71 79 81 81 84 84 79 84 89 89 87 87 88 90 88 91 96 98 100 99 98 92 91 84 73 62 53 47 49 36 21 19 21 18 11 354 336 328 324 331 349 347 338 333 327 324 329 332 319 318 320 318 313 304 301 299 300 295 303 305 310 313 313 313 313 317 319 316 319 320 320 319 319
94 88 85 83 81 79 73 74 74 71 73 72 72 72 77 79 79 78 83 82 82 83 86 81 81 85 90 89 89 93 92 92 89 84 76 64 56 54 49 44 41 25 23 24 17 13 4 353 347 354 7 7 3 347 342 339 337 334 331 331 330 331 325 323 314 311 305 306 298 296 298 307 312 313 314 315 316 320 323 325 325 327 328 330 333
79 81 79 75 75 74 77 78 75 77 82 87 84 78 77 77 76 75 75 75 74 69 72 82 82 81 83 86 89 92 92 91 89 82 72 61 46 46 45 38 31 29 34 25 11 8 359 356 360 7 7 3 4 352 347 341 339 334 332 331 331 334 334 334 330 319 319 313 308 304 305 309 314 316 317 317 319 322 322 322 324 327 330 336 340
73 70 75 75 75 77 76 78 79 80 79 80 86 86 81 82 79 76 76 77 76 73 71 73 77 78 86 90 93 96 97 100 100 102 100 88 48 24 26 30 31 30 30 21 10 9 7 4 5 9 5 359 353 351 349 342 339 336 332 329 332 335 336 336 333 333 336 327 317 305 309 313 316 319 322 320 322 325 330 332 331 332 334 339 344
73 72 73 74 76 74 74 80 81 80 81 85 86 89 87 83 83 80 79 79 80 80 77 77 80 79 76 78 83 93 101 113 120 123 99 68 47 31 30 33 30 27 23 21 20 15 14 8 5 2 358 350 343 343 349 344 338 335 332 333 336 339 339 339 335 332 334 337 320 316 325 329 330 332 334 333 331 331 333 334 337 340 341 341 340